| time (UTC) | temp C | wind direction | speed KPH | gust KPH | rain 1hr cm | rain 24hr cm | rain mn cm | humidity % | barometer mb |
| 20260507153603 | 21 | 338 | 9.7 | 9.7 | 0.00 | 0.00 | 0.00 | 78 | 1017.2 |
| 20260507153059 | 21 | 353 | 1.6 | 6.4 | 0.00 | 0.00 | 0.00 | 77 | 1017.0 |
| 20260507152555 | 21 | 310 | 4.8 | 8.0 | 0.00 | 0.00 | 0.00 | 76 | 1017.1 |
| 20260507152052 | 21 | 332 | 4.8 | 8.0 | 0.00 | 0.00 | 0.00 | 76 | 1017.0 |
| 20260507151548 | 21 | 24 | 3.2 | 6.4 | 0.00 | 0.00 | 0.00 | 76 | 1016.9 |
| 20260507151045 | 21 | 319 | 3.2 | 6.4 | 0.00 | 0.00 | 0.00 | 76 | 1016.9 |
| 20260507150543 | 21 | 22 | 1.6 | 4.8 | 0.00 | 0.00 | 0.00 | 76 | 1016.9 |
| 20260507150039 | 21 | 354 | 1.6 | 3.2 | 0.00 | 0.00 | 0.00 | 75 | 1016.8 |
| 20260507145540 | 21 | 334 | 3.2 | 4.8 | 0.00 | 0.00 | 0.00 | 74 | 1016.9 |
| 20260507145038 | 21 | 35 | 3.2 | 6.4 | 0.00 | 0.00 | 0.00 | 74 | 1016.8 |
| 20260507144534 | 21 | 62 | 4.8 | 6.4 | 0.00 | 0.00 | 0.00 | 74 | 1016.7 |
| 20260507144032 | 21 | 55 | 4.8 | 4.8 | 0.00 | 0.00 | 0.00 | 74 | 1016.5 |
| 20260507143529 | 21 | 63 | 3.2 | 3.2 | 0.00 | 0.00 | 0.00 | 74 | 1016.7 |
| 20260507143026 | 21 | 348 | 1.6 | 3.2 | 0.00 | 0.00 | 0.00 | 74 | 1016.5 |
| 20260507142522 | 21 | 353 | 3.2 | 3.2 | 0.00 | 0.00 | 0.00 | 74 | 1016.7 |
| 20260507142019 | 21 | 333 | 3.2 | 3.2 | 0.00 | 0.00 | 0.00 | 74 | 1016.8 |
| 20260507141515 | 21 | 332 | 3.2 | 4.8 | 0.00 | 0.00 | 0.00 | 74 | 1016.8 |
| 20260507141012 | 21 | 358 | 1.6 | 4.8 | 0.00 | 0.00 | 0.00 | 75 | 1016.6 |
| 20260507140508 | 21 | 304 | 3.2 | 6.4 | 0.00 | 0.00 | 0.00 | 75 | 1016.9 |
| 20260507140006 | 21 | 338 | 3.2 | 4.8 | 0.00 | 0.00 | 0.00 | 75 | 1016.8 |
| 20260507135502 | 21 | 330 | 3.2 | 6.4 | 0.00 | 0.00 | 0.00 | 75 | 1016.9 |
| 20260507134959 | 21 | 318 | 3.2 | 6.4 | 0.00 | 0.00 | 0.00 | 75 | 1016.9 |
| 20260507134456 | 21 | 342 | 1.6 | 8.0 | 0.00 | 0.00 | 0.00 | 75 | 1016.8 |
| 20260507133952 | 21 | 339 | 3.2 | 3.2 | 0.00 | 0.00 | 0.00 | 74 | 1016.8 |
| 20260507133448 | 22 | 334 | 3.2 | 8.0 | 0.00 | 0.00 | 0.00 | 74 | 1016.8 |
| 20260507132947 | 22 | 332 | 3.2 | 4.8 | 0.00 | 0.00 | 0.00 | 74 | 1016.8 |
| 20260507132442 | 22 | 350 | 4.8 | 6.4 | 0.00 | 0.00 | 0.00 | 74 | 1016.9 |
| 20260507131939 | 22 | 359 | 3.2 | 6.4 | 0.00 | 0.00 | 0.00 | 75 | 1017.1 |
| 20260507131436 | 22 | 343 | 3.2 | 8.0 | 0.00 | 0.00 | 0.00 | 75 | 1016.9 |
| 20260507130933 | 21 | 330 | 3.2 | 6.4 | 0.00 | 0.00 | 0.00 | 75 | 1016.9 |
| 20260507130431 | 21 | 11 | 3.2 | 8.0 | 0.00 | 0.00 | 0.00 | 76 | 1016.9 |
| 20260507125929 | 21 | 333 | 4.8 | 6.4 | 0.00 | 0.00 | 0.00 | 76 | 1017.2 |
| 20260507125426 | 21 | 334 | 4.8 | 8.0 | 0.00 | 0.00 | 0.00 | 76 | 1017.1 |
| 20260507124924 | 21 | 316 | 6.4 | 9.7 | 0.00 | 0.00 | 0.00 | 76 | 1017.2 |
| 20260507124419 | 21 | 343 | 3.2 | 4.8 | 0.00 | 0.00 | 0.00 | 76 | 1017.1 |
| 20260507123918 | 21 | 325 | 3.2 | 6.4 | 0.00 | 0.00 | 0.00 | 76 | 1017.4 |
| 20260507123415 | 21 | 357 | 0.0 | 4.8 | 0.00 | 0.00 | 0.00 | 76 | 1017.3 |
| 20260507122912 | 21 | 329 | 6.4 | 9.7 | 0.00 | 0.00 | 0.00 | 76 | 1017.3 |
| 20260507122407 | 21 | 324 | 3.2 | 4.8 | 0.00 | 0.00 | 0.00 | 77 | 1017.3 |
| 20260507121903 | 21 | 315 | 4.8 | 6.4 | 0.00 | 0.00 | 0.00 | 76 | 1017.4 |
| 20260507121359 | 21 | 286 | 6.4 | 14.5 | 0.00 | 0.00 | 0.00 | 76 | 1017.5 |
| 20260507120855 | 21 | 333 | 6.4 | 8.0 | 0.00 | 0.00 | 0.00 | 77 | 1017.3 |
| 20260507120352 | 21 | 1 | 3.2 | 6.4 | 0.00 | 0.00 | 0.00 | 77 | 1017.5 |
| 20260507115848 | 21 | 335 | 3.2 | 6.4 | 0.00 | 0.00 | 0.00 | 76 | 1017.4 |
| 20260507115344 | 21 | 341 | 8.0 | 9.7 | 0.00 | 0.00 | 0.00 | 77 | 1017.7 |
| 20260507114840 | 21 | 328 | 4.8 | 8.0 | 0.00 | 0.00 | 0.00 | 77 | 1017.8 |
| 20260507114337 | 21 | 298 | 4.8 | 9.7 | 0.00 | 0.00 | 0.00 | 76 | 1017.9 |
| 20260507113834 | 21 | 322 | 4.8 | 12.9 | 0.00 | 0.00 | 0.00 | 77 | 1017.8 |
| 20260507113332 | 21 | 326 | 3.2 | 11.3 | 0.00 | 0.00 | 0.00 | 78 | 1017.9 |
| 20260507112829 | 21 | 306 | 6.4 | 9.7 | 0.00 | 0.00 | 0.00 | 79 | 1017.9 |
| 20260507112326 | 21 | 323 | 6.4 | 9.7 | 0.00 | 0.00 | 0.00 | 79 | 1018.1 |
| 20260507111824 | 21 | 323 | 14.5 | 14.5 | 0.00 | 0.00 | 0.00 | 79 | 1018.0 |
| 20260507111320 | 21 | 309 | 6.4 | 14.5 | 0.00 | 0.00 | 0.00 | 79 | 1018.0 |
| 20260507110816 | 21 | 303 | 3.2 | 8.0 | 0.00 | 0.00 | 0.00 | 79 | 1017.9 |
| 20260507110313 | 21 | 348 | 6.4 | 11.3 | 0.00 | 0.00 | 0.00 | 78 | 1018.1 |
| 20260507105810 | 21 | 314 | 4.8 | 9.7 | 0.00 | 0.00 | 0.00 | 78 | 1018.0 |
| 20260507105307 | 21 | 323 | 9.7 | 9.7 | 0.00 | 0.00 | 0.00 | 78 | 1018.1 |
| 20260507104803 | 21 | 313 | 3.2 | 16.1 | 0.00 | 0.00 | 0.00 | 79 | 1018.3 |
| 20260507104259 | 21 | 319 | 4.8 | 12.9 | 0.00 | 0.00 | 0.00 | 79 | 1018.1 |
| 20260507103756 | 21 | 26 | 6.4 | 9.7 | 0.00 | 0.00 | 0.00 | 79 | 1018.2 |
| 20260507103252 | 21 | 334 | 4.8 | 8.0 | 0.00 | 0.00 | 0.00 | 79 | 1018.3 |
| 20260507102749 | 21 | 340 | 3.2 | 14.5 | 0.00 | 0.00 | 0.00 | 78 | 1018.2 |
| 20260507102245 | 21 | 62 | 1.6 | 8.0 | 0.00 | 0.00 | 0.00 | 77 | 1018.1 |
| 20260507101741 | 21 | 303 | 6.4 | 17.7 | 0.00 | 0.00 | 0.00 | 76 | 1018.4 |
| 20260507101236 | 21 | 316 | 4.8 | 9.7 | 0.00 | 0.00 | 0.00 | 75 | 1018.4 |
| 20260507100734 | 21 | 290 | 4.8 | 8.0 | 0.00 | 0.00 | 0.00 | 76 | 1018.3 |
| 20260507100232 | 21 | 344 | 4.8 | 11.3 | 0.00 | 0.00 | 0.00 | 76 | 1018.6 |
| 20260507095730 | 21 | 300 | 6.4 | 14.5 | 0.00 | 0.00 | 0.00 | 76 | 1018.5 |
| 20260507095226 | 21 | 315 | 12.9 | 14.5 | 0.00 | 0.00 | 0.00 | 76 | 1018.4 |
| 20260507094723 | 21 | 316 | 9.7 | 17.7 | 0.00 | 0.00 | 0.00 | 74 | 1018.4 |
| 20260507094220 | 21 | 81 | 4.8 | 17.7 | 0.00 | 0.00 | 0.00 | 72 | 1018.4 |
| 20260507093717 | 21 | 313 | 8.0 | 9.7 | 0.00 | 0.00 | 0.00 | 74 | 1018.4 |
| 20260507093216 | 21 | 297 | 8.0 | 9.7 | 0.00 | 0.00 | 0.00 | 75 | 1018.5 |
| 20260507092713 | 21 | 303 | 4.8 | 9.7 | 0.00 | 0.00 | 0.00 | 75 | 1018.4 |
| 20260507092209 | 21 | 321 | 4.8 | 17.7 | 0.00 | 0.00 | 0.00 | 74 | 1018.9 |
| 20260507091705 | 21 | 339 | 3.2 | 14.5 | 0.00 | 0.00 | 0.00 | 73 | 1018.8 |
| 20260507091202 | 21 | 329 | 9.7 | 16.1 | 0.00 | 0.00 | 0.00 | 74 | 1018.8 |
| 20260507090657 | 21 | 313 | 4.8 | 11.3 | 0.00 | 0.00 | 0.00 | 75 | 1018.7 |
| 20260507090154 | 21 | 277 | 4.8 | 9.7 | 0.00 | 0.00 | 0.00 | 75 | 1018.7 |
| 20260507085651 | 21 | 300 | 9.7 | 12.9 | 0.00 | 0.00 | 0.00 | 75 | 1018.9 |
| 20260507085148 | 21 | 336 | 6.4 | 14.5 | 0.00 | 0.00 | 0.00 | 73 | 1018.8 |
| 20260507084645 | 21 | 337 | 9.7 | 12.9 | 0.00 | 0.00 | 0.00 | 73 | 1018.9 |
| 20260507084142 | 21 | 312 | 8.0 | 9.7 | 0.00 | 0.00 | 0.00 | 74 | 1018.9 |
| 20260507083638 | 21 | 315 | 8.0 | 17.7 | 0.00 | 0.00 | 0.00 | 75 | 1018.8 |
| 20260507083135 | 21 | 320 | 6.4 | 11.3 | 0.00 | 0.00 | 0.00 | 75 | 1018.7 |
| 20260507082631 | 21 | 333 | 4.8 | 14.5 | 0.00 | 0.00 | 0.00 | 76 | 1018.9 |
| 20260507082128 | 21 | 289 | 3.2 | 9.7 | 0.00 | 0.00 | 0.00 | 77 | 1018.7 |
| 20260507081625 | 21 | 281 | 4.8 | 12.9 | 0.00 | 0.00 | 0.00 | 76 | 1018.5 |
| 20260507081121 | 21 | 316 | 3.2 | 8.0 | 0.00 | 0.00 | 0.00 | 77 | 1018.7 |
| 20260507080617 | 21 | 307 | 6.4 | 11.3 | 0.00 | 0.00 | 0.00 | 77 | 1018.6 |
| 20260507080114 | 21 | 309 | 12.9 | 14.5 | 0.00 | 0.00 | 0.00 | 77 | 1018.5 |
| 20260507075614 | 21 | 335 | 9.7 | 11.3 | 0.00 | 0.00 | 0.00 | 77 | 1018.7 |
| 20260507075111 | 21 | 300 | 11.3 | 16.1 | 0.00 | 0.00 | 0.00 | 78 | 1018.8 |
| 20260507074608 | 21 | 314 | 14.5 | 17.7 | 0.00 | 0.00 | 0.00 | 78 | 1018.6 |
| 20260507074106 | 21 | 305 | 3.2 | 14.5 | 0.00 | 0.00 | 0.00 | 78 | 1018.6 |
| 20260507073602 | 21 | 346 | 6.4 | 14.5 | 0.00 | 0.00 | 0.00 | 79 | 1018.4 |
| 20260507073058 | 21 | 327 | 8.0 | 9.7 | 0.00 | 0.00 | 0.00 | 79 | 1018.4 |
| 20260507072556 | 21 | 308 | 9.7 | 14.5 | 0.00 | 0.00 | 0.00 | 80 | 1018.4 |
| 20260507072053 | 21 | 285 | 4.8 | 6.4 | 0.00 | 0.00 | 0.00 | 79 | 1018.4 |
| 20260507071550 | 21 | 329 | 3.2 | 11.3 | 0.00 | 0.00 | 0.00 | 79 | 1018.6 |
| 20260507071047 | 21 | 320 | 4.8 | 9.7 | 0.00 | 0.00 | 0.00 | 79 | 1018.4 |
| 20260507070544 | 21 | 326 | 6.4 | 19.3 | 0.00 | 0.00 | 0.00 | 79 | 1018.2 |
| 20260507070041 | 21 | 316 | 4.8 | 11.3 | 0.00 | 0.00 | 0.00 | 80 | 1018.2 |
| 20260507065537 | 21 | 328 | 8.0 | 9.7 | 0.00 | 0.00 | 0.00 | 79 | 1018.2 |
| 20260507065034 | 21 | 329 | 3.2 | 11.3 | 0.00 | 0.00 | 0.00 | 79 | 1018.3 |
| 20260507064532 | 21 | 309 | 9.7 | 16.1 | 0.00 | 0.00 | 0.00 | 78 | 1017.9 |
| 20260507064031 | 21 | 288 | 4.8 | 9.7 | 0.00 | 0.00 | 0.00 | 80 | 1017.9 |
| 20260507063527 | 21 | 285 | 3.2 | 11.3 | 0.00 | 0.00 | 0.00 | 80 | 1018.0 |
| 20260507063025 | 22 | 309 | 12.9 | 14.5 | 0.00 | 0.00 | 0.00 | 79 | 1017.8 |
| 20260507062521 | 22 | 301 | 4.8 | 9.7 | 0.00 | 0.00 | 0.00 | 78 | 1017.7 |
| 20260507062019 | 21 | 329 | 4.8 | 9.7 | 0.00 | 0.00 | 0.00 | 80 | 1017.5 |
| 20260507061516 | 22 | 316 | 3.2 | 11.3 | 0.00 | 0.00 | 0.00 | 80 | 1017.4 |
| 20260507061014 | 21 | 315 | 6.4 | 17.7 | 0.00 | 0.00 | 0.00 | 79 | 1017.5 |
| 20260507060512 | 21 | 338 | 8.0 | 9.7 | 0.00 | 0.00 | 0.00 | 79 | 1017.4 |
| 20260507060008 | 21 | 304 | 9.7 | 22.5 | 0.00 | 0.00 | 0.00 | 79 | 1017.4 |
| 20260507055503 | 22 | 302 | 6.4 | 16.1 | 0.00 | 0.00 | 0.00 | 78 | 1017.1 |
| 20260507055000 | 22 | 319 | 6.4 | 19.3 | 0.00 | 0.00 | 0.00 | 79 | 1017.1 |
| 20260507054456 | 22 | 316 | 6.4 | 16.1 | 0.00 | 0.00 | 0.00 | 79 | 1017.2 |
| 20260507053953 | 22 | 319 | 4.8 | 11.3 | 0.00 | 0.00 | 0.00 | 79 | 1017.1 |
| 20260507053451 | 22 | 303 | 6.4 | 16.1 | 0.00 | 0.00 | 0.00 | 79 | 1017.0 |
| 20260507052949 | 22 | 328 | 6.4 | 8.0 | 0.00 | 0.00 | 0.00 | 79 | 1017.1 |
| 20260507052447 | 22 | 314 | 6.4 | 9.7 | 0.00 | 0.00 | 0.00 | 80 | 1017.1 |
| 20260507051943 | 22 | 323 | 11.3 | 12.9 | 0.00 | 0.00 | 0.00 | 79 | 1016.7 |
| 20260507051441 | 22 | 307 | 8.0 | 11.3 | 0.00 | 0.00 | 0.00 | 79 | 1016.9 |
| 20260507050938 | 22 | 313 | 4.8 | 11.3 | 0.00 | 0.00 | 0.00 | 79 | 1016.8 |
| 20260507050434 | 22 | 40 | 6.4 | 11.3 | 0.00 | 0.00 | 0.00 | 79 | 1016.8 |
| 20260507045931 | 22 | 332 | 4.8 | 14.5 | 0.00 | 0.00 | 0.00 | 79 | 1016.8 |
| 20260507045428 | 21 | 322 | 6.4 | 14.5 | 0.00 | 0.00 | 0.00 | 79 | 1016.6 |
| 20260507044925 | 21 | 314 | 12.9 | 12.9 | 0.00 | 0.00 | 0.00 | 79 | 1016.7 |
| 20260507044422 | 22 | 302 | 8.0 | 12.9 | 0.00 | 0.00 | 0.00 | 80 | 1016.5 |
| 20260507043918 | 22 | 308 | 8.0 | 11.3 | 0.00 | 0.00 | 0.00 | 79 | 1016.6 |
| 20260507043414 | 22 | 290 | 11.3 | 17.7 | 0.00 | 0.00 | 0.00 | 79 | 1016.5 |
| 20260507042910 | 22 | 331 | 6.4 | 12.9 | 0.00 | 0.00 | 0.00 | 79 | 1016.3 |
| 20260507042407 | 22 | 322 | 4.8 | 12.9 | 0.00 | 0.00 | 0.00 | 79 | 1016.3 |
| 20260507041903 | 22 | 324 | 4.8 | 9.7 | 0.00 | 0.00 | 0.00 | 79 | 1016.4 |
| 20260507041400 | 22 | 296 | 4.8 | 14.5 | 0.00 | 0.00 | 0.00 | 79 | 1016.3 |
| 20260507040857 | 22 | 305 | 4.8 | 12.9 | 0.00 | 0.00 | 0.00 | 80 | 1016.2 |
| 20260507040353 | 22 | 297 | 6.4 | 11.3 | 0.00 | 0.00 | 0.00 | 80 | 1016.3 |
| 20260507035849 | 22 | 31 | 3.2 | 9.7 | 0.00 | 0.00 | 0.00 | 80 | 1016.1 |
| 20260507035345 | 22 | 297 | 4.8 | 14.5 | 0.00 | 0.00 | 0.00 | 80 | 1016.2 |
| 20260507034842 | 22 | 292 | 3.2 | 14.5 | 0.00 | 0.00 | 0.00 | 80 | 1016.1 |
| 20260507034339 | 22 | 323 | 4.8 | 14.5 | 0.00 | 0.00 | 0.00 | 80 | 1016.0 |
| 20260507033837 | 22 | 289 | 8.0 | 14.5 | 0.00 | 0.00 | 0.00 | 79 | 1016.1 |
| 20260507033335 | 22 | 285 | 8.0 | 11.3 | 0.00 | 0.00 | 0.00 | 79 | 1016.0 |
| 20260507032832 | 22 | 317 | 8.0 | 12.9 | 0.00 | 0.00 | 0.00 | 79 | 1016.0 |
| 20260507032328 | 22 | 305 | 6.4 | 9.7 | 0.00 | 0.00 | 0.00 | 78 | 1015.7 |
| 20260507031824 | 22 | 38 | 4.8 | 8.0 | 0.00 | 0.00 | 0.00 | 77 | 1015.8 |
| 20260507031321 | 22 | 307 | 4.8 | 12.9 | 0.00 | 0.00 | 0.00 | 78 | 1015.8 |
| 20260507030817 | 22 | 313 | 8.0 | 17.7 | 0.00 | 0.00 | 0.00 | 78 | 1015.7 |
| 20260507030316 | 22 | 304 | 4.8 | 22.5 | 0.00 | 0.00 | 0.00 | 78 | 1015.6 |
| 20260507025812 | 23 | 319 | 6.4 | 12.9 | 0.00 | 0.00 | 0.00 | 77 | 1015.6 |
| 20260507025309 | 23 | 346 | 6.4 | 20.9 | 0.00 | 0.00 | 0.00 | 76 | 1015.7 |
| 20260507024807 | 23 | 315 | 8.0 | 12.9 | 0.00 | 0.00 | 0.00 | 76 | 1015.5 |
| 20260507024304 | 23 | 330 | 11.3 | 17.7 | 0.00 | 0.00 | 0.00 | 77 | 1015.7 |
| 20260507023800 | 23 | 319 | 9.7 | 14.5 | 0.00 | 0.00 | 0.00 | 77 | 1015.7 |
| 20260507023257 | 23 | 352 | 4.8 | 14.5 | 0.00 | 0.00 | 0.00 | 77 | 1015.8 |
| 20260507022754 | 23 | 323 | 9.7 | 12.9 | 0.00 | 0.00 | 0.00 | 76 | 1015.5 |
| 20260507022250 | 23 | 339 | 4.8 | 9.7 | 0.00 | 0.00 | 0.00 | 76 | 1015.8 |
| 20260507021747 | 23 | 302 | 9.7 | 9.7 | 0.00 | 0.00 | 0.00 | 76 | 1015.7 |
| 20260507021242 | 23 | 348 | 4.8 | 9.7 | 0.00 | 0.00 | 0.00 | 75 | 1015.7 |
| 20260507020741 | 23 | 291 | 9.7 | 12.9 | 0.00 | 0.00 | 0.00 | 75 | 1015.9 |
| 20260507020237 | 23 | 233 | 6.4 | 9.7 | 0.00 | 0.00 | 0.00 | 74 | 1015.9 |
| 20260507015734 | 23 | 325 | 3.2 | 11.3 | 0.00 | 0.00 | 0.00 | 75 | 1015.8 |
| 20260507015232 | 24 | 324 | 6.4 | 17.7 | 0.00 | 0.00 | 0.00 | 73 | 1016.0 |
| 20260507014728 | 25 | 8 | 4.8 | 6.4 | 0.00 | 0.00 | 0.00 | 72 | 1015.9 |
| 20260507014225 | 25 | 318 | 3.2 | 9.7 | 0.00 | 0.00 | 0.00 | 71 | 1015.9 |
| 20260507013721 | 26 | 322 | 6.4 | 8.0 | 0.00 | 0.00 | 0.00 | 69 | 1015.9 |
| 20260507013219 | 26 | 339 | 8.0 | 16.1 | 0.00 | 0.00 | 0.00 | 68 | 1015.6 |
| 20260507012716 | 25 | 77 | 6.4 | 11.3 | 0.00 | 0.00 | 0.00 | 70 | 1015.8 |
| 20260507012216 | 26 | 328 | 6.4 | 12.9 | 0.00 | 0.00 | 0.00 | 70 | 1015.6 |
| 20260507011714 | 26 | 319 | 8.0 | 9.7 | 0.00 | 0.00 | 0.00 | 68 | 1015.8 |
| 20260507011211 | 27 | 313 | 3.2 | 8.0 | 0.00 | 0.00 | 0.00 | 66 | 1015.7 |
| 20260507010710 | 26 | 289 | 3.2 | 6.4 | 0.00 | 0.00 | 0.00 | 69 | 1015.8 |
| 20260507010207 | 26 | 24 | 3.2 | 14.5 | 0.00 | 0.00 | 0.00 | 68 | 1015.9 |
| 20260507005705 | 26 | 329 | 8.0 | 8.0 | 0.00 | 0.00 | 0.00 | 69 | 1015.9 |
| 20260507005200 | 25 | 313 | 8.0 | 9.7 | 0.00 | 0.00 | 0.00 | 71 | 1016.1 |
| 20260507004657 | 25 | 284 | 4.8 | 11.3 | 0.00 | 0.00 | 0.00 | 71 | 1016.1 |
| 20260507004155 | 25 | 324 | 6.4 | 20.9 | 0.00 | 0.00 | 0.00 | 70 | 1016.2 |
| 20260507003651 | 25 | 310 | 3.2 | 8.0 | 0.00 | 0.00 | 0.00 | 72 | 1016.2 |
| 20260507003151 | 25 | 341 | 4.8 | 12.9 | 0.00 | 0.00 | 0.00 | 72 | 1016.3 |
| 20260507002648 | 25 | 305 | 6.4 | 8.0 | 0.00 | 0.00 | 0.00 | 71 | 1016.4 |
| 20260507002143 | 25 | 305 | 8.0 | 11.3 | 0.00 | 0.00 | 0.00 | 71 | 1016.3 |
| 20260507001641 | 25 | 330 | 4.8 | 8.0 | 0.00 | 0.00 | 0.00 | 73 | 1016.5 |
| 20260507001138 | 25 | 317 | 11.3 | 12.9 | 0.00 | 0.00 | 0.00 | 72 | 1016.4 |
| 20260507000634 | 25 | 327 | 6.4 | 8.0 | 0.00 | 0.00 | 0.00 | 72 | 1016.4 |
| 20260507000130 | 25 | 322 | 3.2 | 17.7 | 0.00 | 0.00 | 0.00 | 72 | 1016.6 |
| 20260506235627 | 25 | 306 | 4.8 | 16.1 | 0.00 | 0.00 | 0.00 | 72 | 1016.6 |
| 20260506235127 | 25 | 320 | 8.0 | 11.3 | 0.00 | 0.00 | 0.00 | 71 | 1016.7 |
| 20260506234625 | 25 | 3 | 3.2 | 9.7 | 0.00 | 0.00 | 0.00 | 69 | 1016.8 |
| 20260506234122 | 25 | 318 | 4.8 | 8.0 | 0.00 | 0.00 | 0.00 | 70 | 1016.6 |
| 20260506233619 | 26 | 309 | 11.3 | 14.5 | 0.00 | 0.00 | 0.00 | 69 | 1016.7 |
| 20260506233116 | 26 | 311 | 9.7 | 11.3 | 0.00 | 0.00 | 0.00 | 68 | 1016.9 |
| 20260506232612 | 26 | 320 | 3.2 | 8.0 | 0.00 | 0.00 | 0.00 | 68 | 1016.9 |
| 20260506232107 | 26 | 313 | 4.8 | 9.7 | 0.00 | 0.00 | 0.00 | 67 | 1016.9 |
| 20260506231605 | 26 | 317 | 4.8 | 19.3 | 0.00 | 0.00 | 0.00 | 68 | 1016.9 |
| 20260506231103 | 26 | 301 | 12.9 | 14.5 | 0.00 | 0.00 | 0.00 | 67 | 1016.8 |
| 20260506230559 | 26 | 355 | 1.6 | 11.3 | 0.00 | 0.00 | 0.00 | 67 | 1016.8 |
| 20260506230057 | 27 | 306 | 17.7 | 17.7 | 0.00 | 0.00 | 0.00 | 64 | 1016.6 |
| 20260506225553 | 27 | 317 | 8.0 | 11.3 | 0.00 | 0.00 | 0.00 | 65 | 1016.9 |
| 20260506225050 | 28 | 299 | 11.3 | 17.7 | 0.00 | 0.00 | 0.00 | 63 | 1016.9 |
| 20260506224547 | 27 | 94 | 3.2 | 8.0 | 0.00 | 0.00 | 0.00 | 63 | 1016.9 |
| 20260506224043 | 27 | 19 | 1.6 | 9.7 | 0.00 | 0.00 | 0.00 | 65 | 1016.8 |
| 20260506223539 | 27 | 244 | 4.8 | 8.0 | 0.00 | 0.00 | 0.00 | 63 | 1017.0 |
| 20260506223036 | 27 | 320 | 3.2 | 9.7 | 0.00 | 0.00 | 0.00 | 63 | 1017.0 |
| 20260506222533 | 27 | 292 | 4.8 | 6.4 | 0.00 | 0.00 | 0.00 | 66 | 1017.1 |
| 20260506222029 | 28 | 69 | 1.6 | 9.7 | 0.00 | 0.00 | 0.00 | 62 | 1017.0 |
| 20260506221527 | 28 | 308 | 3.2 | 8.0 | 0.00 | 0.00 | 0.00 | 63 | 1017.1 |
| 20260506221025 | 27 | 298 | 4.8 | 8.0 | 0.00 | 0.00 | 0.00 | 63 | 1017.3 |
| 20260506220520 | 28 | 322 | 3.2 | 11.3 | 0.00 | 0.00 | 0.00 | 64 | 1017.2 |
| 20260506220016 | 28 | 300 | 6.4 | 8.0 | 0.00 | 0.00 | 0.00 | 60 | 1017.3 |
| 20260506215513 | 28 | 347 | 3.2 | 6.4 | 0.00 | 0.00 | 0.00 | 61 | 1017.0 |
| 20260506215009 | 28 | 296 | 3.2 | 8.0 | 0.00 | 0.00 | 0.00 | 62 | 1017.4 |
| 20260506214506 | 28 | 268 | 1.6 | 9.7 | 0.00 | 0.00 | 0.00 | 64 | 1017.3 |
| 20260506214003 | 27 | 15 | 3.2 | 9.7 | 0.00 | 0.00 | 0.00 | 64 | 1017.3 |
| 20260506213501 | 27 | 310 | 1.6 | 6.4 | 0.00 | 0.00 | 0.00 | 63 | 1017.5 |
| 20260506212958 | 27 | 318 | 4.8 | 4.8 | 0.00 | 0.00 | 0.00 | 65 | 1017.5 |
| 20260506212454 | 27 | 321 | 6.4 | 8.0 | 0.00 | 0.00 | 0.00 | 65 | 1017.7 |
| 20260506211949 | 27 | 318 | 3.2 | 6.4 | 0.00 | 0.00 | 0.00 | 66 | 1017.4 |
| 20260506211445 | 27 | 30 | 0.0 | 4.8 | 0.00 | 0.00 | 0.00 | 63 | 1017.4 |
| 20260506210942 | 26 | 3 | 3.2 | 4.8 | 0.00 | 0.00 | 0.00 | 65 | 1017.5 |
| 20260506210438 | 26 | 80 | 4.8 | 9.7 | 0.00 | 0.00 | 0.00 | 66 | 1017.7 |
| 20260506205936 | 25 | 9 | 3.2 | 4.8 | 0.00 | 0.00 | 0.00 | 67 | 1017.9 |
| 20260506205432 | 26 | 92 | 6.4 | 9.7 | 0.00 | 0.00 | 0.00 | 66 | 1017.7 |
| 20260506204928 | 26 | 87 | 3.2 | 8.0 | 0.00 | 0.00 | 0.00 | 66 | 1017.8 |
| 20260506204426 | 26 | 71 | 3.2 | 6.4 | 0.00 | 0.00 | 0.00 | 65 | 1017.7 |
| 20260506203923 | 27 | 323 | 6.4 | 6.4 | 0.00 | 0.00 | 0.00 | 64 | 1017.8 |
| 20260506203420 | 27 | 29 | 3.2 | 6.4 | 0.00 | 0.00 | 0.00 | 65 | 1017.7 |
| 20260506202917 | 27 | 300 | 4.8 | 4.8 | 0.00 | 0.00 | 0.00 | 64 | 1017.5 |
| 20260506202414 | 27 | 94 | 3.2 | 6.4 | 0.00 | 0.00 | 0.00 | 61 | 1017.8 |
| 20260506201911 | 28 | 330 | 1.6 | 4.8 | 0.00 | 0.00 | 0.00 | 61 | 1017.8 |
| 20260506201409 | 28 | 37 | 1.6 | 4.8 | 0.00 | 0.00 | 0.00 | 61 | 1017.8 |
| 20260506200905 | 27 | 77 | 3.2 | 6.4 | 0.00 | 0.00 | 0.00 | 61 | 1017.7 |
| 20260506200401 | 27 | 316 | 4.8 | 14.5 | 0.00 | 0.00 | 0.00 | 63 | 1017.4 |
| 20260506195857 | 26 | 323 | 1.6 | 6.4 | 0.00 | 0.00 | 0.00 | 65 | 1017.4 |
| 20260506195355 | 26 | 299 | 6.4 | 9.7 | 0.00 | 0.00 | 0.00 | 66 | 1017.5 |
| 20260506194851 | 26 | 332 | 1.6 | 4.8 | 0.00 | 0.00 | 0.00 | 65 | 1017.8 |
| 20260506194348 | 26 | 142 | 4.8 | 6.4 | 0.00 | 0.00 | 0.00 | 67 | 1017.5 |
| 20260506193846 | 26 | 305 | 4.8 | 9.7 | 0.00 | 0.00 | 0.00 | 67 | 1017.3 |
| 20260506193342 | 26 | 68 | 1.6 | 6.4 | 0.00 | 0.00 | 0.00 | 66 | 1017.2 |
| 20260506192839 | 26 | 38 | 3.2 | 8.0 | 0.00 | 0.00 | 0.00 | 66 | 1017.1 |
| 20260506192335 | 26 | 64 | 1.6 | 12.9 | 0.00 | 0.00 | 0.00 | 65 | 1017.2 |
| 20260506191833 | 26 | 277 | 4.8 | 8.0 | 0.00 | 0.00 | 0.00 | 65 | 1017.3 |
| 20260506191329 | 26 | 331 | 4.8 | 19.3 | 0.00 | 0.00 | 0.00 | 64 | 1017.1 |
| 20260506190826 | 26 | 288 | 3.2 | 6.4 | 0.00 | 0.00 | 0.00 | 66 | 1017.1 |
| 20260506190322 | 26 | 297 | 3.2 | 9.7 | 0.00 | 0.00 | 0.00 | 66 | 1017.0 |
| 20260506185819 | 26 | 301 | 6.4 | 14.5 | 0.00 | 0.00 | 0.00 | 67 | 1017.0 |
| 20260506185316 | 25 | 339 | 0.0 | 11.3 | 0.00 | 0.00 | 0.00 | 67 | 1017.0 |
| 20260506184813 | 25 | 355 | 3.2 | 12.9 | 0.00 | 0.00 | 0.00 | 67 | 1017.0 |
| 20260506184311 | 26 | 339 | 6.4 | 11.3 | 0.00 | 0.00 | 0.00 | 65 | 1016.7 |
| 20260506183808 | 26 | 19 | 1.6 | 6.4 | 0.00 | 0.00 | 0.00 | 64 | 1017.0 |
| 20260506183303 | 25 | 329 | 6.4 | 6.4 | 0.00 | 0.00 | 0.00 | 65 | 1016.9 |
| 20260506182800 | 25 | 353 | 3.2 | 6.4 | 0.00 | 0.00 | 0.00 | 66 | 1017.1 |
| 20260506182257 | 25 | 281 | 3.2 | 4.8 | 0.00 | 0.00 | 0.00 | 65 | 1016.9 |
| 20260506181755 | 25 | 311 | 4.8 | 6.4 | 0.00 | 0.00 | 0.00 | 62 | 1017.0 |
| 20260506181253 | 25 | 8 | 0.0 | 6.4 | 0.00 | 0.00 | 0.00 | 60 | 1016.9 |
| 20260506180749 | 25 | 300 | 3.2 | 6.4 | 0.00 | 0.00 | 0.00 | 63 | 1016.9 |
| 20260506180245 | 23 | 42 | 1.6 | 3.2 | 0.00 | 0.00 | 0.00 | 66 | 1016.8 |
| 20260506175742 | 23 | 275 | 3.2 | 3.2 | 0.00 | 0.00 | 0.00 | 65 | 1016.9 |
| 20260506175239 | 24 | 297 | 3.2 | 3.2 | 0.00 | 0.00 | 0.00 | 66 | 1017.0 |
| 20260506174737 | 24 | 52 | 3.2 | 4.8 | 0.00 | 0.00 | 0.00 | 66 | 1016.8 |
| 20260506174233 | 23 | 72 | 3.2 | 4.8 | 0.00 | 0.00 | 0.00 | 64 | 1016.8 |
| 20260506173731 | 23 | 337 | 1.6 | 3.2 | 0.00 | 0.00 | 0.00 | 65 | 1016.8 |
| 20260506173227 | 23 | 7 | 1.6 | 4.8 | 0.00 | 0.00 | 0.00 | 66 | 1016.8 |
| 20260506172724 | 23 | 332 | 3.2 | 4.8 | 0.00 | 0.00 | 0.00 | 66 | 1016.9 |
| 20260506172221 | 23 | 340 | 3.2 | 4.8 | 0.00 | 0.00 | 0.00 | 66 | 1016.6 |
| 20260506171718 | 23 | 358 | 1.6 | 4.8 | 0.00 | 0.00 | 0.00 | 66 | 1016.6 |
| 20260506171216 | 22 | 346 | 3.2 | 3.2 | 0.00 | 0.00 | 0.00 | 68 | 1016.4 |
| 20260506170713 | 22 | 12 | 1.6 | 4.8 | 0.00 | 0.00 | 0.00 | 68 | 1016.6 |
| 20260506170210 | 22 | 6 | 1.6 | 3.2 | 0.00 | 0.00 | 0.00 | 69 | 1016.5 |
| 20260506165708 | 22 | 34 | 3.2 | 6.4 | 0.00 | 0.00 | 0.00 | 68 | 1016.3 |
| 20260506165204 | 22 | 42 | 4.8 | 6.4 | 0.00 | 0.00 | 0.00 | 70 | 1016.3 |
| 20260506164702 | 22 | 49 | 4.8 | 6.4 | 0.00 | 0.00 | 0.00 | 70 | 1016.3 |
| 20260506164159 | 22 | 53 | 6.4 | 6.4 | 0.00 | 0.00 | 0.00 | 70 | 1016.3 |
| 20260506163655 | 22 | 48 | 4.8 | 6.4 | 0.00 | 0.00 | 0.00 | 69 | 1016.2 |
| 20260506163151 | 22 | 69 | 4.8 | 6.4 | 0.00 | 0.00 | 0.00 | 66 | 1016.2 |
| 20260506162647 | 22 | 52 | 4.8 | 4.8 | 0.00 | 0.00 | 0.00 | 66 | 1016.1 |
| 20260506162144 | 22 | 54 | 4.8 | 6.4 | 0.00 | 0.00 | 0.00 | 67 | 1015.9 |
| 20260506161641 | 22 | 59 | 4.8 | 6.4 | 0.00 | 0.00 | 0.00 | 66 | 1015.8 |
| 20260506161138 | 22 | 58 | 4.8 | 6.4 | 0.00 | 0.00 | 0.00 | 65 | 1016.0 |
| 20260506160636 | 22 | 35 | 3.2 | 4.8 | 0.00 | 0.00 | 0.00 | 66 | 1015.8 |
| 20260506160132 | 22 | 40 | 3.2 | 6.4 | 0.00 | 0.00 | 0.00 | 68 | 1015.9 |
| 20260506155631 | 22 | 31 | 1.6 | 3.2 | 0.00 | 0.00 | 0.00 | 68 | 1015.8 |
| 20260506155127 | 22 | 75 | 3.2 | 4.8 | 0.00 | 0.00 | 0.00 | 66 | 1015.5 |